Погода в Ашдоде

Израиль     31°48′26″N   34°39′31″E
темп.,
°C
ветер,
м/с
пор.,
м/с
влажн.,
%
обл.,
%
осадки,
мм/ч
давл.,
гПа
погр.,
м
8 мая, сб
сб800:00+19вюв11710 0.0 101511
03:00+18ююз11720 0.0 101511
06:00+17юв11690 0.0 101514
09:00+25св12360 0.0 1015362
12:00+31ссз22210 0.0 1013951
15:00+30ссз64300 0.0 1012483
18:00+28с56390 0.0 1012342
21:00+24св33510 0.0 101227
9 мая, вс
вс900:00+22ссв22500 0.0 101211
03:00+24юв33321 0.0 100913
06:00+25ююв332529 0.0 100916
09:00+33зюз242069 0.0 1010408
12:00+38зюз5512100 0.0 10101189
15:00+35сз661863 0.0 1008599
18:00+32ссз2320100 0.0 1008180
21:00+26з1133100 0.0 100911
10 мая, пн
пн1000:00+23ю2272100 0.0 101030
03:00+22всв1173100 0.0 100911
06:00+23ссв1159100 0.0 100911
09:00+28ююз344473 0.0 1010393
12:00+31зсз4235100 0.0 1009667
15:00+29ссз54455 0.0 1008443
18:00+28ссз55430 0.0 1007371
21:00+22зсз226277 0.0 100931
11 мая, вт
вт1100:00+21ссз22725 0.0 100813
03:00+20с11760 0.0 100812
06:00+19с22770 0.0 100925
09:00+25с33430 0.0 1009519
12:00+29ссз65320 0.1 1009750
15:00+28ссз77310 0.1 1008726
18:00+26ссз67370 0.0 1008488
21:00+21с33590 0.0 100948
12 мая, ср
ср1200:00+20с33630 0.0 100931
03:00+19с12720 0.0 100915
06:00+18ю00760 0.0 100913
09:00+24зсз21460 0.0 1010503
12:00+27сз54420 0.0 1010814
15:00+27сз65440 0.0 1009730
18:00+24ссз55550 0.0 1009499
21:00+20ссз33850 0.0 101156